| time (UTC) | temp F | wind direction | speed MPH | gust MPH | rain 1hr in | rain 24hr in | rain mn in | humidity % | barometer mb |
| 20260502130530 | 44 | 0.0 | 0.0 | 0.00 | 0.00 | 0.00 | 77 | 1012.2 | |
| 20260502123521 | 45 | 0.0 | 0.0 | 0.00 | 0.00 | 0.00 | 77 | 1012.1 | |
| 20260502122524 | 44 | 0.0 | 0.0 | 0.00 | 0.00 | 0.00 | 76 | 1012.1 | |
| 20260502121528 | 44 | 0.0 | 0.0 | 0.00 | 0.00 | 0.00 | 76 | 1012.3 | |
| 20260502120531 | 44 | 0.0 | 0.0 | 0.00 | 0.00 | 0.00 | 76 | 1012.5 | |
| 20260502115516 | 44 | 0.0 | 0.0 | 0.00 | 0.00 | 0.00 | 75 | 1012.4 | |
| 20260502114519 | 45 | 0.0 | 0.0 | 0.00 | 0.00 | 0.00 | 75 | 1011.6 | |
| 20260502113523 | 45 | 0.0 | 0.0 | 0.00 | 0.00 | 0.00 | 74 | 1011.3 | |
| 20260502112526 | 45 | 0.0 | 0.0 | 0.00 | 0.00 | 0.00 | 75 | 1011.3 | |
| 20260502111530 | 45 | 0.0 | 0.0 | 0.00 | 0.00 | 0.00 | 75 | 1011.2 | |
| 20260502110515 | 44 | 0.0 | 0.0 | 0.00 | 0.00 | 0.00 | 75 | 1011.1 | |
| 20260502105518 | 44 | 0.0 | 0.0 | 0.00 | 0.00 | 0.00 | 75 | 1011.1 | |
| 20260502104521 | 44 | 0.0 | 0.0 | 0.00 | 0.00 | 0.00 | 75 | 1011.1 | |
| 20260502103524 | 44 | 0.0 | 0.0 | 0.00 | 0.00 | 0.00 | 75 | 1011.1 | |
| 20260502102528 | 44 | 0.0 | 0.0 | 0.00 | 0.00 | 0.00 | 73 | 1011.3 | |
| 20260502101525 | 44 | 0.0 | 0.0 | 0.00 | 0.00 | 0.00 | 71 | 1011.1 | |
| 20260502100536 | 44 | 0.0 | 0.0 | 0.00 | 0.00 | 0.00 | 71 | 1010.9 | |
| 20260502090518 | 45 | 0.0 | 0.0 | 0.00 | 0.00 | 0.00 | 63 | 1010.8 | |
| 20260502070522 | 45 | 0.0 | 0.0 | 0.00 | 0.00 | 0.00 | 68 | 1011.0 | |
| 20260502065525 | 44 | 0.0 | 0.0 | 0.00 | 0.00 | 0.00 | 68 | 1011.0 | |
| 20260502064528 | 44 | 0.0 | 0.0 | 0.00 | 0.00 | 0.00 | 69 | 1011.1 | |
| 20260502063526 | 43 | 0.0 | 0.0 | 0.00 | 0.00 | 0.00 | 68 | 1011.2 | |
| 20260502062517 | 43 | 0.0 | 0.0 | 0.00 | 0.00 | 0.00 | 68 | 1011.1 | |
| 20260502061520 | 43 | 0.0 | 0.0 | 0.00 | 0.00 | 0.00 | 68 | 1011.1 | |
| 20260502060517 | 43 | 0.0 | 0.0 | 0.00 | 0.00 | 0.00 | 68 | 1011.0 | |
| 20260502055527 | 43 | 0.0 | 0.0 | 0.00 | 0.00 | 0.00 | 67 | 1011.0 | |
| 20260502054550 | 43 | 0.0 | 0.0 | 0.00 | 0.00 | 0.00 | 66 | 1011.2 | |
| 20260502053515 | 43 | 0.0 | 0.0 | 0.00 | 0.00 | 0.00 | 66 | 1011.3 | |
| 20260502052539 | 44 | 0.0 | 0.0 | 0.00 | 0.00 | 0.00 | 66 | 1011.1 | |
| 20260502051522 | 44 | 0.0 | 0.0 | 0.00 | 0.00 | 0.00 | 67 | 1011.4 | |
| 20260502050525 | 45 | 0.0 | 0.0 | 0.00 | 0.00 | 0.00 | 66 | 1011.6 | |
| 20260502045528 | 45 | 0.0 | 0.0 | 0.00 | 0.00 | 0.00 | 66 | 1011.5 | |
| 20260502044612 | 44 | 0.0 | 0.0 | 0.00 | 0.00 | 0.00 | 66 | 1011.4 | |
| 20260502043537 | 44 | 0.0 | 0.0 | 0.00 | 0.00 | 0.00 | 65 | 1011.4 | |
| 20260502042520 | 44 | 0.0 | 0.0 | 0.00 | 0.00 | 0.00 | 65 | 1011.4 | |
| 20260502041523 | 44 | 0.0 | 0.0 | 0.00 | 0.00 | 0.00 | 65 | 1011.3 | |
| 20260502040527 | 44 | 0.0 | 0.0 | 0.00 | 0.00 | 0.00 | 65 | 1011.3 | |
| 20260502035530 | 44 | 0.0 | 0.0 | 0.00 | 0.00 | 0.00 | 66 | 1011.2 | |
| 20260502034535 | 44 | 0.0 | 0.0 | 0.00 | 0.00 | 0.00 | 63 | 1011.1 | |
| 20260502033519 | 43 | 0.0 | 0.0 | 0.00 | 0.00 | 0.00 | 63 | 1011.0 | |
| 20260502032522 | 43 | 0.0 | 0.0 | 0.00 | 0.00 | 0.00 | 63 | 1011.1 | |
| 20260502031545 | 43 | 0.0 | 0.0 | 0.00 | 0.00 | 0.00 | 64 | 1011.1 | |
| 20260502030529 | 43 | 0.0 | 0.0 | 0.00 | 0.00 | 0.00 | 63 | 1011.2 | |
| 20260502025546 | 43 | 0.0 | 0.0 | 0.00 | 0.00 | 0.00 | 63 | 1011.1 | |
| 20260502024517 | 43 | 0.0 | 0.0 | 0.00 | 0.00 | 0.00 | 62 | 1011.1 | |
| 20260502023520 | 43 | 0.0 | 0.0 | 0.00 | 0.00 | 0.00 | 61 | 1011.0 | |
| 20260502022518 | 43 | 0.0 | 0.0 | 0.00 | 0.00 | 0.00 | 60 | 1011.0 | |
| 20260502021515 | 44 | 0.0 | 0.0 | 0.00 | 0.00 | 0.00 | 58 | 1011.0 | |
| 20260502020611 | 45 | 0.0 | 0.0 | 0.00 | 0.00 | 0.00 | 58 | 1011.0 | |
| 20260502015515 | 46 | 0.0 | 0.0 | 0.00 | 0.00 | 0.00 | 57 | 1011.0 | |
| 20260502014519 | 46 | 0.0 | 0.0 | 0.00 | 0.00 | 0.00 | 57 | 1011.0 | |
| 20260502013522 | 47 | 0.0 | 0.0 | 0.00 | 0.00 | 0.00 | 55 | 1010.8 | |
| 20260502012525 | 47 | 0.0 | 0.0 | 0.00 | 0.00 | 0.00 | 55 | 1010.8 | |
| 20260502011529 | 48 | 0.0 | 0.0 | 0.00 | 0.00 | 0.00 | 53 | 1010.8 | |
| 20260502010532 | 48 | 0.0 | 0.0 | 0.00 | 0.00 | 0.00 | 52 | 1010.8 | |
| 20260502005537 | 49 | 0.0 | 0.0 | 0.00 | 0.00 | 0.00 | 50 | 1010.7 | |
| 20260502004521 | 50 | 0.0 | 0.0 | 0.00 | 0.00 | 0.00 | 47 | 1010.4 | |
| 20260502003524 | 51 | 0.0 | 0.0 | 0.00 | 0.00 | 0.00 | 46 | 1010.3 | |
| 20260502002527 | 52 | 0.0 | 0.0 | 0.00 | 0.00 | 0.00 | 42 | 1010.1 | |
| 20260502001530 | 53 | 0.0 | 0.0 | 0.00 | 0.00 | 0.00 | 40 | 1009.9 | |
| 20260502000516 | 54 | 0.0 | 0.0 | 0.00 | 0.00 | 0.00 | 38 | 1009.8 | |
| 20260501235519 | 56 | 0.0 | 0.0 | 0.00 | 0.00 | 0.00 | 37 | 1009.7 | |
| 20260501234522 | 57 | 0.0 | 0.0 | 0.00 | 0.00 | 0.00 | 35 | 1009.4 | |
| 20260501233525 | 58 | 0.0 | 0.0 | 0.00 | 0.00 | 0.00 | 33 | 1009.3 | |
| 20260501232529 | 59 | 0.0 | 0.0 | 0.00 | 0.00 | 0.00 | 29 | 1009.1 | |
| 20260501231526 | 59 | 0.0 | 0.0 | 0.00 | 0.00 | 0.00 | 29 | 1009.1 | |
| 20260501230518 | 60 | 54 | 1.0 | 4.0 | 0.00 | 0.00 | 0.00 | 29 | 1009.1 |
| 20260501225521 | 61 | 248 | 0.0 | 3.0 | 0.00 | 0.00 | 0.00 | 26 | 1009.0 |
| 20260501224518 | 63 | 180 | 1.0 | 3.0 | 0.00 | 0.00 | 0.00 | 25 | 1008.9 |
| 20260501223535 | 63 | 16 | 2.0 | 4.0 | 0.00 | 0.00 | 0.00 | 25 | 1008.9 |
| 20260501222531 | 63 | 225 | 4.0 | 8.0 | 0.00 | 0.00 | 0.00 | 25 | 1008.6 |
| 20260501221536 | 64 | 237 | 2.0 | 4.0 | 0.00 | 0.00 | 0.00 | 24 | 1008.7 |
| 20260501220519 | 65 | 43 | 2.0 | 5.0 | 0.00 | 0.00 | 0.00 | 24 | 1008.8 |
| 20260501215522 | 65 | 233 | 2.0 | 4.0 | 0.00 | 0.00 | 0.00 | 24 | 1008.6 |
| 20260501214546 | 65 | 291 | 1.0 | 5.0 | 0.00 | 0.00 | 0.00 | 24 | 1008.6 |
| 20260501213529 | 66 | 282 | 2.0 | 5.0 | 0.00 | 0.00 | 0.00 | 24 | 1008.4 |
| 20260501212532 | 66 | 215 | 2.0 | 7.0 | 0.00 | 0.00 | 0.00 | 24 | 1008.2 |
| 20260501211518 | 65 | 284 | 1.0 | 7.0 | 0.00 | 0.00 | 0.00 | 23 | 1008.1 |
| 20260501210521 | 65 | 17 | 2.0 | 6.0 | 0.00 | 0.00 | 0.00 | 24 | 1008.1 |
| 20260501205624 | 65 | 264 | 3.0 | 5.0 | 0.00 | 0.00 | 0.00 | 25 | 1008.1 |
| 20260501204527 | 65 | 238 | 3.0 | 7.0 | 0.00 | 0.00 | 0.00 | 25 | 1008.1 |
| 20260501203551 | 66 | 263 | 3.0 | 6.0 | 0.00 | 0.00 | 0.00 | 25 | 1008.1 |
| 20260501202536 | 65 | 354 | 3.0 | 6.0 | 0.00 | 0.00 | 0.00 | 25 | 1008.0 |
| 20260501201519 | 65 | 287 | 3.0 | 8.0 | 0.00 | 0.00 | 0.00 | 26 | 1008.0 |
| 20260501200522 | 64 | 225 | 2.0 | 6.0 | 0.00 | 0.00 | 0.00 | 29 | 1008.0 |
| 20260501195526 | 63 | 40 | 4.0 | 7.0 | 0.00 | 0.00 | 0.00 | 28 | 1008.0 |
| 20260501194549 | 62 | 357 | 4.0 | 6.0 | 0.00 | 0.00 | 0.00 | 29 | 1008.1 |
| 20260501193546 | 62 | 314 | 3.0 | 7.0 | 0.00 | 0.00 | 0.00 | 31 | 1008.4 |
| 20260501192518 | 60 | 241 | 2.0 | 7.0 | 0.00 | 0.00 | 0.00 | 33 | 1008.5 |
| 20260501191521 | 61 | 48 | 3.0 | 8.0 | 0.00 | 0.00 | 0.00 | 31 | 1008.3 |
| 20260501190518 | 65 | 237 | 5.0 | 8.0 | 0.00 | 0.00 | 0.00 | 30 | 1008.2 |
| 20260501185536 | 63 | 269 | 4.0 | 8.0 | 0.00 | 0.00 | 0.00 | 32 | 1008.3 |
| 20260501184531 | 63 | 1 | 2.0 | 5.0 | 0.00 | 0.00 | 0.00 | 32 | 1008.3 |
| 20260501183536 | 64 | 274 | 3.0 | 8.0 | 0.00 | 0.00 | 0.00 | 32 | 1008.4 |
| 20260501182519 | 63 | 1 | 4.0 | 7.0 | 0.00 | 0.00 | 0.00 | 32 | 1008.5 |
| 20260501181543 | 63 | 44 | 3.0 | 7.0 | 0.00 | 0.00 | 0.00 | 33 | 1008.4 |
| 20260501180526 | 63 | 237 | 2.0 | 9.0 | 0.00 | 0.00 | 0.00 | 33 | 1008.4 |
| 20260501175529 | 61 | 256 | 5.0 | 7.0 | 0.00 | 0.00 | 0.00 | 33 | 1008.4 |
| 20260501174533 | 61 | 358 | 4.0 | 10.0 | 0.00 | 0.00 | 0.00 | 33 | 1008.5 |
| 20260501173518 | 60 | 302 | 3.0 | 5.0 | 0.00 | 0.00 | 0.00 | 33 | 1008.4 |
| 20260501172541 | 60 | 265 | 4.0 | 9.0 | 0.00 | 0.00 | 0.00 | 34 | 1008.7 |
| 20260501171524 | 60 | 334 | 4.0 | 7.0 | 0.00 | 0.00 | 0.00 | 35 | 1008.6 |
| 20260501170528 | 60 | 256 | 5.0 | 10.0 | 0.00 | 0.00 | 0.00 | 36 | 1008.7 |
| 20260501165531 | 59 | 234 | 5.0 | 11.0 | 0.00 | 0.00 | 0.00 | 37 | 1008.8 |
| 20260501164516 | 59 | 169 | 3.0 | 7.0 | 0.00 | 0.00 | 0.00 | 37 | 1008.7 |
| 20260501163520 | 59 | 207 | 4.0 | 9.0 | 0.00 | 0.00 | 0.00 | 37 | 1008.9 |
| 20260501162523 | 58 | 245 | 6.0 | 9.0 | 0.00 | 0.00 | 0.00 | 37 | 1009.0 |
| 20260501161527 | 59 | 331 | 3.0 | 6.0 | 0.00 | 0.00 | 0.00 | 38 | 1009.0 |
| 20260501160530 | 57 | 268 | 4.0 | 10.0 | 0.00 | 0.00 | 0.00 | 38 | 1009.0 |
| 20260501155517 | 58 | 253 | 4.0 | 9.0 | 0.00 | 0.00 | 0.00 | 40 | 1009.0 |
| 20260501154518 | 57 | 206 | 3.0 | 10.0 | 0.00 | 0.00 | 0.00 | 39 | 1009.2 |
| 20260501153522 | 57 | 244 | 4.0 | 14.0 | 0.00 | 0.00 | 0.00 | 40 | 1009.3 |
| 20260501152519 | 56 | 359 | 4.0 | 8.0 | 0.00 | 0.00 | 0.00 | 42 | 1009.6 |
| 20260501151516 | 55 | 3.0 | 3.0 | 0.00 | 0.00 | 0.00 | 43 | 1009.6 | |
| 20260501150532 | 54 | 274 | 3.0 | 6.0 | 0.00 | 0.00 | 0.00 | 44 | 1009.6 |
| 20260501145517 | 56 | 342 | 1.0 | 5.0 | 0.00 | 0.00 | 0.00 | 45 | 1009.5 |
| 20260501144600 | 54 | 231 | 6.0 | 9.0 | 0.00 | 0.00 | 0.00 | 46 | 1009.5 |
| 20260501143523 | 55 | 58 | 2.0 | 5.0 | 0.00 | 0.00 | 0.00 | 43 | 1009.4 |
| 20260501142527 | 54 | 223 | 4.0 | 8.0 | 0.00 | 0.00 | 0.00 | 44 | 1009.2 |
| 20260501141530 | 54 | 271 | 5.0 | 8.0 | 0.00 | 0.00 | 0.00 | 46 | 1009.2 |
| 20260501140515 | 53 | 257 | 5.0 | 12.0 | 0.00 | 0.00 | 0.00 | 47 | 1009.2 |
| 20260501135538 | 53 | 302 | 5.0 | 10.0 | 0.00 | 0.00 | 0.00 | 47 | 1009.2 |